Station SDIA2 - South Douglas, AK Image indicating link to RSS feed of recent meteorological observations for station SDIA2


Conditions at SDIA2 as of
(3:46 pm AKDT)
2346 GMT on 06/20/2024:
     

Click on the graph icon in the table below to see a time series plot of the last five days of that observation.

5-day plot - Wind Direction Wind Direction (WDIR):SSE ( 150 deg true )
5-day plot - Wind Speed Wind Speed (WSPD): 9.9 kts
5-day plot - Wind Gust Wind Gust (GST): 9.9 kts
5-day plot - Atmospheric Pressure Atmospheric Pressure (PRES):30.03 in
5-day plot - Air Temperature Air Temperature (ATMP): 64.0 °F
5-day plot - Dew Point Dew Point (DEWP): 54.0 °F
5-day plot - Wind Speed at 10 Meters Wind Speed at 10 meters (WSPD10M): 11.7 kts
5-day plot - Wind Speed at 20 Meters Wind Speed at 20 meters (WSPD20M): 11.7 kts
5-day plot -  Wind Speed, Wind Gust and Atmospheric Pressure Combined plot of Wind Speed, Gust, and Air Pressure
Supplemental Measurements
Previous observations
TIME
(AKDT)
5-day plot - Wind Direction
WDIR
 
5-day plot - Wind Speed
WSPD
kts
5-day plot - Wind Gust
GST
kts
5-day plot - Wave Height
WVHT
ft
5-day plot - Dominant Wave Period
DPD
sec
5-day plot - Average Wave Period
APD
sec
5-day plot - Mean Wave Direction
MWD
 
5-day plot - Atmospheric Pressure
PRES
in
5-day plot - Pressure Tendency
PTDY
in
5-day plot - Air Temperature
ATMP
°F
5-day plot - Water Temperature
WTMP
°F
5-day plot - Dew Point
DEWP
°F
5-day plot - Salinity
SAL
psu
5-day plot - Visibility
VIS
nmi
5-day plot - Tide (above MLLW)
TIDE
ft
2024-06-20 03:26 pm SE 9.9 11.1----30.04- 64.9- 53.1---
2024-06-20 03:06 pmSSE 11.1 11.1----30.04- 64.0- 53.1---
2024-06-20 02:46 pmSSE 9.9 9.9----30.04- 62.1- 53.1---
2024-06-20 02:26 pmSSE 9.9 9.9----30.04- 62.1- 53.1---
2024-06-20 02:06 pmSSE 9.9 11.1----30.05- 61.0- 53.1---
2024-06-20 01:46 pm SE 8.9 9.9----30.05- 61.0- 53.1---
2024-06-20 01:26 pm SE 8.9 9.9----30.05- 61.0- 53.1---
2024-06-20 01:06 pmSSE 9.9 9.9----30.06- 62.1- 53.1---
2024-06-20 12:46 pm SE 8.0 9.9----30.06- 61.0- 53.1---
2024-06-20 12:26 pmSSE 9.9 9.9----30.06- 60.1- 53.1---
2024-06-20 12:06 pmSSE 9.9 12.0----30.06- 60.1- 53.1---
2024-06-20 11:46 amSSE 11.1 11.1----30.06- 61.0- 53.1---
2024-06-20 11:26 am SE 8.0 9.9----30.07- 60.1- 53.1---
2024-06-20 11:06 am SE 8.9 8.9----30.07- 61.0- 52.0---
2024-06-20 10:46 amSSE 9.9 9.9----30.07- 59.0- 52.0---
2024-06-20 10:26 am SE 7.0 9.9----30.08- 60.1- 52.0---
2024-06-20 10:06 am SE 8.9 8.9----30.08- 60.1- 52.0---
2024-06-20 09:46 amSSE 8.0 9.9----30.08- 59.0- 52.0---
2024-06-20 09:26 amSSE 9.9 9.9----30.09- 59.0- 53.1---
2024-06-20 09:06 am SE 6.0 7.0----30.09- 57.9- 52.0---
2024-06-20 08:46 am SE 5.1 8.0----30.09- 57.9- 52.0---
2024-06-20 08:26 am SE 7.0 8.9----30.09- 57.9- 52.0---
2024-06-20 08:06 amSSE 7.0 8.0----30.09- 57.9- 52.0---
2024-06-20 07:46 amSSE 6.0 6.0----30.08- 57.9- 52.0---
2024-06-20 07:26 amSSE 7.0 8.0----30.08- 57.0- 52.0---
2024-06-20 07:06 am S 5.1 5.1----30.08- 57.0- 52.0---
2024-06-20 06:46 am SE 5.1 5.1----30.08- 57.0- 52.0---
2024-06-20 06:26 am SE 2.9 4.1----30.07- 57.0- 52.0---
2024-06-20 06:06 amSSE 4.1 4.1----30.07- 57.0- 52.0---
2024-06-20 05:46 am SE 4.1 4.1----30.07- 55.9- 51.1---
2024-06-20 05:26 amESE 4.1 4.1----30.07- 55.9- 51.1---
2024-06-20 05:06 amESE 1.9 2.9----30.07- 57.0- 51.1---
2024-06-20 04:46 amSSW 2.9 2.9----30.07- 55.9- 50.0---
2024-06-20 04:26 amESE 5.1 5.1----30.07- 57.0- 50.0---
2024-06-20 04:06 am SE 2.9 2.9----30.07- 57.0- 50.0---
2024-06-20 03:46 am S 1.9 4.1----30.06- 57.0- 50.0---
2024-06-20 03:26 am S 2.9 2.9----30.06- 57.0- 51.1---
2024-06-20 03:06 am S 1.9 2.9----30.06- 57.9- 51.1---
2024-06-20 02:46 amSSE 4.1 4.1----30.06- 57.9- 52.0---
2024-06-20 02:26 amSSE 4.1 4.1----30.06- 57.9- 52.0---
2024-06-20 02:06 amSSE 5.1 5.1----30.06- 57.9- 52.0---
2024-06-20 01:46 am S 6.0 6.0----30.06- 59.0- 53.1---
2024-06-20 01:26 am S 4.1 4.1----30.06- 59.0- 52.0---
2024-06-20 01:06 amSSE 1.9 4.1----30.05- 59.0- 53.1---
2024-06-20 12:46 am E 2.9 4.1----30.05- 59.0- 53.1---
2024-06-20 12:26 am- 0.0 2.9----30.05- 59.0- 53.1---
2024-06-20 12:06 am- 0.0 1.0----30.05- 57.9- 53.1---
2024-06-19 11:46 pm- 0.0 1.0----30.05- 57.9- 52.0---
2024-06-19 11:26 pm- 0.0 1.9----30.04- 59.0- 53.1---
2024-06-19 11:06 pmESE 1.9 4.1----30.04- 60.1- 53.1---
2024-06-19 10:46 pm- 0.0 1.0----30.03- 60.1- 53.1---
2024-06-19 10:26 pm- 0.0 1.0----30.03- 61.0- 53.1---
2024-06-19 10:06 pm- 0.0 1.0----30.03- 62.1- 54.0---
2024-06-19 09:46 pm- 0.0 1.0----30.03- 64.0- 55.0---
2024-06-19 09:26 pm- 0.0 1.0----30.03- 64.9- 55.9---
2024-06-19 09:06 pm S 2.9 4.1----30.02- 64.0- 54.0---
2024-06-19 08:46 pmSSE 4.1 4.1----30.01- 64.0- 54.0---
2024-06-19 08:26 pm S 4.1 4.1----30.01- 64.9- 54.0---
2024-06-19 08:06 pm S 4.1 4.1----30.01- 64.9- 54.0---
2024-06-19 07:46 pmSSE 4.1 4.1----30.01- 64.9- 54.0---
2024-06-19 07:26 pmSSE 5.1 5.1----30.00- 64.9- 55.0---
2024-06-19 07:06 pm SE 2.9 4.1----30.01- 66.0- 54.0---
2024-06-19 06:46 pmSSE 2.9 4.1----30.01- 66.0- 54.0---
2024-06-19 06:26 pm SE 4.1 5.1----30.01- 66.0- 54.0---
2024-06-19 06:06 pm SE 5.1 5.1----30.01- 66.0- 54.0---
2024-06-19 05:46 pm SE 4.1 4.1----30.01- 66.0- 54.0---
2024-06-19 05:26 pmSSE 5.1 5.1----30.02- 66.0- 54.0---
2024-06-19 05:06 pmSSE 6.0 6.0----30.02- 64.9- 54.0---
2024-06-19 04:46 pmSSE 5.1 7.0----30.02- 64.0- 54.0---
2024-06-19 04:26 pmSSE 6.0 8.0----30.02- 64.0- 54.0---
2024-06-19 04:06 pmSSE 8.0 8.0----30.02- 63.0- 54.0---